N1DNE Weather Reports


Display with metric or nautical units.
time (UTC)temp
F
wind
direction
speed
MPH
gust
MPH
rain 1hr
in
rain 24hr
in
rain mn
in
humidity
%
barometer
mb
20260906133808 61 45 1.0 4.0 0.00 0.17 0.16 96 1014.2
20260906132808 61 63 1.0 4.0 0.00 0.17 0.16 96 1014.2
20260906131809 61 62 1.0 4.0 0.00 0.17 0.16 96 1014.0
20260906130808 60 59 1.0 4.0 0.00 0.17 0.16 96 1014.0
20260906125809 60 55 1.0 4.0 0.00 0.17 0.16 96 1014.0
20260906124804 60 31 1.0 4.0 0.00 0.17 0.16 96 1014.0
20260906123803 60 46 0.0 3.0 0.00 0.17 0.16 96 1014.1
20260906122806 60 44 1.0 2.0 0.01 0.17 0.16 95 1014.0
20260906121805 60 43 0.0 3.0 0.01 0.17 0.16 96 1013.9
20260906120805 60 43 0.0 3.0 0.01 0.17 0.16 96 1013.8
20260906115804 60 58 0.0 2.0 0.01 0.17 0.16 96 1013.6
20260906114803 60 51 0.0 0.0 0.01 0.17 0.16 96 1013.5
20260906113804 60 51 0.0 0.0 0.01 0.17 0.16 96 1013.4
20260906112805 60 51 0.0 0.0 0.00 0.16 0.15 96 1013.3
20260906111805 60 51 0.0 0.0 0.00 0.16 0.15 96 1013.2
20260906110801 60 51 0.0 0.0 0.00 0.16 0.15 96 1013.1
20260906110246 60 51 0.0 0.0 0.00 0.16 0.15 96 1012.8
20260906104802 60 51 0.0 0.0 0.00 0.16 0.15 95 1012.6
20260906103756 60 51 0.0 0.0 0.00 0.16 0.15 95 1012.5
20260906102756 60 51 0.0 0.0 0.00 0.16 0.15 95 1012.4
20260906101757 60 51 0.0 0.0 0.00 0.16 0.15 95 1012.2
20260906100756 60 51 0.0 0.0 0.00 0.16 0.15 95 1012.3
20260906095757 60 51 0.0 0.0 0.00 0.16 0.15 95 1012.1
20260906094756 60 51 0.0 0.0 0.00 0.16 0.15 96 1012.0
20260906093758 60 51 0.0 0.0 0.00 0.16 0.15 96 1012.0
20260906092755 60 51 0.0 0.0 0.00 0.16 0.15 95 1011.9
20260906091757 60 51 0.0 0.0 0.00 0.16 0.15 95 1011.9
20260906090750 61 51 0.0 0.0 0.00 0.16 0.15 95 1011.5
20260906085750 61 51 0.0 0.0 0.00 0.16 0.15 95 1011.7
20260906084751 61 51 0.0 0.0 0.00 0.16 0.15 95 1011.7
20260906083750 61 51 0.0 0.0 0.00 0.16 0.15 95 1011.7
20260906082750 61 51 0.0 0.0 0.00 0.16 0.15 95 1011.6
20260906082229 61 51 0.0 0.0 0.01 0.16 0.15 95 1011.5
20260906081226 61 51 0.0 0.0 0.01 0.16 0.15 95 1011.6
20260906075749 61 51 0.0 0.0 0.01 0.16 0.15 95 1011.7
20260906074752 61 51 0.0 0.0 0.01 0.16 0.15 95 1011.6
20260906073744 61 51 0.0 0.0 0.01 0.16 0.15 95 1011.6
20260906072743 61 51 0.0 0.0 0.01 0.16 0.15 95 1011.7
20260906071745 61 51 0.0 0.0 0.01 0.15 0.14 95 1011.6
20260906070743 61 51 0.0 0.0 0.05 0.15 0.14 95 1011.8
20260906065745 61 51 0.0 0.0 0.08 0.15 0.14 95 1011.8
20260906064744 61 51 0.0 0.0 0.08 0.15 0.14 95 1011.9
20260906063743 62 51 0.0 1.0 0.09 0.15 0.14 94 1011.8
20260906062745 62 51 0.0 1.0 0.10 0.15 0.14 94 1011.9
20260906061745 62 51 0.0 1.0 0.10 0.14 0.13 94 1011.9
20260906060740 62 51 0.0 2.0 0.07 0.10 0.09 94 1011.9
20260906055745 63 51 0.0 0.0 0.05 0.07 0.06 94 1011.9
20260906054742 63 51 0.0 0.0 0.06 0.07 0.06 94 1012.0
20260906054228 63 51 0.0 0.0 0.05 0.06 0.05 93 1011.9
20260906052742 63 51 0.0 0.0 0.04 0.05 0.04 93 1011.9
20260906051742 64 51 0.0 0.0 0.03 0.04 0.03 92 1011.9
20260906051226 64 51 0.0 0.0 0.02 0.03 0.02 92 1011.9
20260906045742 64 51 0.0 1.0 0.01 0.02 0.01 92 1011.9
20260906044738 65 51 0.0 1.0 0.00 0.01 0.00 91 1011.7
20260906043740 65 51 0.0 3.0 0.00 0.01 0.00 91 1011.6
20260906042739 65 52 0.0 4.0 0.00 0.01 0.00 91 1011.5
20260906041740 65 15 0.0 1.0 0.00 0.01 0.00 91 1011.5
20260906041214 65 15 0.0 1.0 0.00 0.01 0.00 91 1011.4
20260906035737 65 15 0.0 1.0 0.00 0.01 0.01 91 1011.4
20260906034738 65 15 1.0 4.0 0.00 0.01 0.01 91 1011.4
20260906033738 65 74 0.0 1.0 0.00 0.01 0.01 92 1011.3
20260906032732 65 74 0.0 1.0 0.00 0.01 0.01 93 1011.2
20260906031731 65 74 0.0 0.0 0.00 0.01 0.01 93 1011.1
20260906030732 65 74 0.0 0.0 0.00 0.01 0.01 93 1011.0
20260906025732 65 74 0.0 0.0 0.00 0.01 0.01 93 1011.1
20260906025650 65 74 0.0 0.0 0.00 0.01 0.01 93 1011.1
20260906023732 65 74 0.0 0.0 0.00 0.01 0.01 93 1011.1
20260906022732 65 74 0.0 2.0 0.00 0.01 0.01 93 1011.1
20260906021731 65 76 0.0 0.0 0.00 0.01 0.01 93 1011.1
20260906020733 65 76 0.0 1.0 0.00 0.01 0.01 93 1011.0
20260906015729 65 76 0.0 1.0 0.00 0.01 0.01 93 1010.8
20260906014730 65 76 0.0 0.0 0.00 0.01 0.01 93 1010.9
20260906013730 65 76 0.0 0.0 0.00 0.01 0.01 92 1010.8
20260906012729 65 76 0.0 1.0 0.00 0.01 0.01 92 1010.7
20260906011729 66 76 0.0 0.0 0.00 0.01 0.01 91 1010.8
20260906010730 66 76 0.0 0.0 0.00 0.01 0.01 90 1010.6
20260906005730 67 76 0.0 0.0 0.00 0.01 0.01 90 1010.4
20260906005659 67 76 0.0 1.0 0.00 0.01 0.01 90 1010.2
20260906003727 67 76 0.0 3.0 0.00 0.01 0.01 90 1010.2
20260906003216 67 76 0.0 0.0 0.00 0.01 0.01 90 1010.3
20260906001727 68 76 0.0 0.0 0.00 0.01 0.01 90 1010.1
20260906000727 68 76 0.0 0.0 0.00 0.01 0.01 91 1010.1
20260905235727 68 76 0.0 1.0 0.00 0.01 0.01 90 1009.9
20260905234727 68 76 0.0 3.0 0.00 0.01 0.01 90 1009.8
20260905233727 69 81 0.0 1.0 0.00 0.01 0.01 89 1009.4
20260905232725 69 81 0.0 0.0 0.00 0.01 0.01 89 1009.4
20260905231724 69 81 0.0 1.0 0.00 0.01 0.01 88 1009.3
20260905230724 70 81 0.0 0.0 0.00 0.01 0.01 87 1009.3
20260905225723 70 81 0.0 0.0 0.00 0.01 0.01 86 1009.2
20260905224723 70 81 0.0 0.0 0.00 0.01 0.01 86 1009.3
20260905223724 71 81 0.0 0.0 0.00 0.01 0.01 86 1009.2
20260905222718 71 81 0.0 0.0 0.00 0.01 0.01 86 1009.3
20260905221718 71 81 0.0 0.0 0.00 0.01 0.01 85 1009.2
20260905221159 71 81 0.0 0.0 0.00 0.01 0.01 85 1009.0
20260905215720 71 81 0.0 0.0 0.00 0.01 0.01 85 1009.0
20260905215200 71 81 0.0 0.0 0.00 0.01 0.01 84 1008.9
20260905213719 71 81 0.0 1.0 0.00 0.01 0.01 85 1008.8
20260905212720 71 81 0.0 0.0 0.00 0.01 0.01 86 1008.6
20260905211718 71 81 0.0 0.0 0.00 0.01 0.01 85 1008.6
20260905210719 71 81 0.0 2.0 0.00 0.01 0.01 84 1008.4
20260905205720 71 81 0.0 3.0 0.00 0.01 0.01 87 1008.4
20260905204719 71 81 0.0 2.0 0.00 0.01 0.01 89 1008.4
20260905203714 70 81 0.0 1.0 0.00 0.01 0.01 90 1008.3
20260905202714 70 81 0.0 2.0 0.00 0.01 0.01 91 1008.3
20260905201712 70 81 0.0 0.0 0.00 0.01 0.01 91 1008.3
20260905200714 70 81 0.0 0.0 0.00 0.01 0.01 91 1008.3
20260905195713 70 81 1.0 2.0 0.00 0.01 0.01 89 1008.2
20260905194714 70 81 1.0 2.0 0.00 0.01 0.01 86 1008.3
20260905193712 71 71 0.0 2.0 0.00 0.01 0.01 85 1008.3
20260905192713 72 70 1.0 5.0 0.00 0.01 0.01 80 1008.5
20260905191713 73 29 1.0 8.0 0.00 0.01 0.01 77 1008.5
20260905190708 74 219 0.0 2.0 0.00 0.01 0.01 78 1008.2
20260905185706 74 219 0.0 2.0 0.00 0.01 0.01 78 1008.1
20260905184708 73 219 1.0 4.0 0.00 0.01 0.01 82 1008.2
20260905183706 72 223 0.0 1.0 0.00 0.01 0.01 83 1008.2
20260905182706 71 223 0.0 1.0 0.01 0.01 0.01 86 1008.4
20260905181707 70 223 0.0 2.0 0.01 0.01 0.01 89 1008.5
20260905180706 70 223 0.0 0.0 0.01 0.01 0.01 89 1008.6
20260905180150 70 223 0.0 3.0 0.01 0.01 0.01 87 1008.6
20260905174708 71 223 1.0 3.0 0.01 0.01 0.01 85 1008.7
20260905174135 72 223 1.0 4.0 0.01 0.01 0.01 81 1008.6
20260905172701 74 44 1.0 4.0 0.00 0.00 0.00 75 1008.7
20260905171700 74 49 1.0 4.0 0.00 0.00 0.00 71 1008.5
20260905170701 74 71 1.0 5.0 0.00 0.00 0.00 71 1008.4
20260905165700 74 40 1.0 5.0 0.00 0.00 0.00 70 1008.4
20260905165141 73 89 2.0 6.0 0.00 0.00 0.00 72 1008.5
20260905163701 73 63 2.0 9.0 0.00 0.00 0.00 71 1008.5
20260905162702 73 12 2.0 7.0 0.00 0.00 0.00 72 1008.5
20260905161701 73 28 3.0 7.0 0.00 0.00 0.00 74 1008.4
20260905160657 73 78 2.0 7.0 0.00 0.00 0.00 74 1008.4
20260905155658 73 74 3.0 10.0 0.00 0.00 0.00 73 1008.5
20260905154658 73 72 2.0 7.0 0.00 0.00 0.00 74 1008.5
20260905153659 72 61 2.0 6.0 0.00 0.00 0.00 75 1008.6
20260905152659 72 71 3.0 6.0 0.00 0.00 0.00 74 1008.5
20260905151700 72 36 3.0 5.0 0.00 0.00 0.00 76 1008.7
20260905150658 72 65 3.0 7.0 0.00 0.00 0.00 75 1008.8
20260905145658 72 67 2.0 4.0 0.00 0.00 0.00 77 1008.7
20260905144655 71 46 2.0 5.0 0.00 0.00 0.00 76 1008.6
20260905143656 71 30 2.0 5.0 0.00 0.00 0.00 78 1008.4
20260905142655 71 77 2.0 8.0 0.00 0.00 0.00 78 1008.5
20260905142138 70 57 1.0 4.0 0.00 0.00 0.00 81 1008.5
20260905140656 69 46 1.0 4.0 0.00 0.00 0.00 83 1008.5
20260905135656 69 58 1.0 4.0 0.00 0.00 0.00 84 1008.7